Weather in Sokcho

South Korea     38°11′54″N   128°34′54″E
temp.,
°C
wind,
m/s
gust,
m/s
humid.,
%
clouds,
%
prec.,
mm/h
press.,
hPa
HPBL,
m
28 february, sun
sun2800:000wsw118476 0.0 103282
03:000wnw117483 0.0 103133
06:000wsw116381 0.0 102935
09:00+5sse014241 0.0 1028117
12:00+10ne12350 0.0 1026414
15:00+12wsw13338 0.0 1024668
18:00+8sw124888 0.0 102429
21:00+7wsw335294 0.0 102446
1 march, mon
mon100:00+6wsw3359100 0.0 102361
03:00+6w2258100 0.0 102336
06:00+4n1292100 4.7 1022138
09:00+2n3599100 17.0 1022257
12:000nne4699100 17.4 1021296
15:00−1nne5899100 36.2 1019484
18:00−2ne5899100 17.1 1019636
21:00−2nne5899100 31.4 1020639
2 march, tue
tue200:00−3nne6998100 8.3 1020778
03:00−3nne6998100 12.9 1021741
06:00−4nne4797100 2.8 1021537
09:00−3nne4596100 4.7 1025541
12:00−2nne3391100 1.0 1026568
15:00−2ene1192100 1.3 1026512
18:00−3ese128998 0.1 1028182
21:00−6ssw238989 0.1 103083
3 march, wed
wed300:00−6sw22878 0.0 103064
03:00−7wsw22874 0.0 103041
06:00−7wsw22830 0.0 103044
09:00−2sw22850 0.0 1031147
12:00+1sw239613 0.0 1029240
15:00+1sw239750 0.0 1027198
18:00+1sw239278 0.0 1026158
21:00−1wsw338144 0.0 102761
4 march, thu
thu400:00−1wsw34810 0.0 102796
03:00−1wsw34870 0.0 1025117
06:00+1sw3487100 0.0 1025170
09:00+2wsw3395100 0.0 1025142
12:00+2wsw3499100 0.0 1024149
15:00+3sw2399100 0.0 1022102
18:00+2sw3398100 0.0 102293
21:00+1wsw338660 0.0 102256